Location: College Park
(38.9810°N, 76.9370°W)
Time: 06:36:35
(UTC-05:00)

ISS - Pass Details

Date: 10 January 2018
Orbit: 402 x 407 km, 51.6° (Epoch: 19 January)

Event Time Altitude Azimuth Distance (km) Brightness Sun altitude
Exits shadow 06:42:03 - 326° (NW) 1,615 -1.3 -8.7°
Reaches altitude 10° 06:42:28 10° 329° (NNW) 1,467 -1.5 -8.6°
Maximum altitude 06:45:16 25° 28° (NNE) 860 -2.1 -8.1°
Drops below altitude 10° 06:48:04 10° 86° (E) 1,464 0.2 -7.6°
Sets 06:50:22 0° 100° (E) 2,322 2.0 -7.2°
